Time,TemperatureF,DewpointF,PressureIn,WindDirection,WindDirectionDegrees,WindSpeedMPH,WindSpeedGustMPH,Humidity,HourlyPrecipIn,Conditions,Clouds,dailyrainin,SolarRadiationWatts/m^2,SoftwareType,DateUTC
2013-01-15 00:00:00,28.7,26.7,30.12,ENE,65,4.0,4.0,92,0.00,,,0.02,0,Wunderground v.1.15,2013-01-15 05:00:00,
2013-01-15 00:10:00,28.7,26.7,30.12,ENE,72,4.0,19.0,92,0.00,,,0.02,0,Wunderground v.1.15,2013-01-15 05:10:00,
2013-01-15 00:20:00,28.7,26.7,30.11,ENE,61,3.0,19.0,92,0.00,,,0.02,0,Wunderground v.1.15,2013-01-15 05:20:00,
2013-01-15 00:30:00,28.7,26.7,30.12,ENE,75,4.0,19.0,92,0.00,,,0.02,0,Wunderground v.1.15,2013-01-15 05:30:00,
2013-01-15 00:40:00,28.7,26.9,30.13,East,92,3.0,19.0,93,0.00,,,0.02,0,Wunderground v.1.15,2013-01-15 05:40:00,
2013-01-15 00:50:00,28.7,26.9,30.12,ENE,77,3.0,19.0,93,0.00,,,0.02,0,Wunderground v.1.15,2013-01-15 05:50:00,
2013-01-15 01:00:00,28.7,26.9,30.12,ENE,73,3.0,19.0,93,0.00,,,0.00,0,Wunderground v.1.15,2013-01-15 06:00:00,
2013-01-15 01:10:00,28.7,26.9,30.13,East,91,3.0,19.0,93,0.00,,,0.00,0,Wunderground v.1.15,2013-01-15 06:10:00,
2013-01-15 01:20:00,28.7,26.9,30.13,NNE,28,2.0,2.0,93,0.00,,,0.00,0,Wunderground v.1.15,2013-01-15 06:20:00,
2013-01-15 01:30:00,28.7,26.9,30.14,East,80,3.0,19.0,93,0.00,,,0.00,0,Wunderground v.1.15,2013-01-15 06:30:00,
2013-01-15 01:40:00,28.6,26.8,30.14,ESE,119,4.0,19.0,93,0.00,,,0.00,0,Wunderground v.1.15,2013-01-15 06:40:00,
2013-01-15 01:50:00,28.6,26.8,30.13,NE,51,3.0,19.0,93,0.00,,,0.00,0,Wunderground v.1.15,2013-01-15 06:50:00,
2013-01-15 02:00:00,28.6,26.8,30.13,NE,52,3.0,19.0,93,0.00,,,0.00,0,Wunderground v.1.15,2013-01-15 07:00:00,
2013-01-15 02:10:00,28.4,26.6,30.13,NE,44,3.0,19.0,93,0.00,,,0.00,0,Wunderground v.1.15,2013-01-15 07:10:00,
2013-01-15 02:20:00,28.2,26.4,30.13,ENE,68,4.0,4.0,93,0.00,,,0.00,0,Wunderground v.1.15,2013-01-15 07:20:00,
2013-01-15 02:30:00,28.3,26.5,30.13,ENE,69,3.0,19.0,93,0.00,,,0.00,0,Wunderground v.1.15,2013-01-15 07:30:00,
2013-01-15 02:40:00,28.3,26.5,30.13,ENE,76,2.0,19.0,93,0.00,,,0.00,0,Wunderground v.1.15,2013-01-15 07:40:00,
2013-01-15 02:50:00,28.1,26.3,30.13,NE,46,3.0,19.0,93,0.00,,,0.00,0,Wunderground v.1.15,2013-01-15 07:50:00,
2013-01-15 03:00:00,28.0,26.2,30.13,NNE,14,3.0,19.0,93,0.00,,,0.00,0,Wunderground v.1.15,2013-01-15 08:00:00,
2013-01-15 03:10:00,27.9,26.1,30.13,ENE,61,4.0,4.0,93,0.00,,,0.00,0,Wunderground v.1.15,2013-01-15 08:10:00,
2013-01-15 03:20:00,28.0,26.2,30.13,NE,51,3.0,19.0,93,0.00,,,0.00,0,Wunderground v.1.15,2013-01-15 08:20:00,
2013-01-15 03:30:00,27.9,26.1,30.14,ENE,63,5.0,19.0,93,0.00,,,0.00,0,Wunderground v.1.15,2013-01-15 08:30:00,
2013-01-15 03:40:00,27.9,25.9,30.14,ENE,64,3.0,3.0,92,0.00,,,0.00,0,Wunderground v.1.15,2013-01-15 08:40:00,
2013-01-15 03:50:00,27.9,25.9,30.14,NE,55,4.0,4.0,92,0.00,,,0.00,0,Wunderground v.1.15,2013-01-15 08:50:00,
2013-01-15 04:00:00,27.8,25.8,30.14,ENE,71,4.0,19.0,92,0.00,,,0.00,0,Wunderground v.1.15,2013-01-15 09:00:00,
2013-01-15 04:10:00,27.8,25.8,30.14,NE,53,3.0,3.0,92,0.00,,,0.00,0,Wunderground v.1.15,2013-01-15 09:10:00,
2013-01-15 04:20:00,27.6,25.6,30.14,North,360,3.0,3.0,92,0.00,,,0.00,0,Wunderground v.1.15,2013-01-15 09:20:00,
2013-01-15 04:30:00,27.5,25.5,30.14,NE,46,3.0,3.0,92,0.00,,,0.00,0,Wunderground v.1.15,2013-01-15 09:30:00,
2013-01-15 04:40:00,27.6,25.6,30.14,NE,38,3.0,19.0,92,0.00,,,0.00,0,Wunderground v.1.15,2013-01-15 09:40:00,
2013-01-15 04:50:00,27.4,25.4,30.14,NE,38,3.0,3.0,92,0.00,,,0.00,0,Wunderground v.1.15,2013-01-15 09:50:00,
2013-01-15 05:00:00,27.2,25.2,30.14,NE,44,3.0,19.0,92,0.00,,,0.00,0,Wunderground v.1.15,2013-01-15 10:00:00,
2013-01-15 05:10:00,27.0,25.0,30.14,East,95,4.0,19.0,92,0.00,,,0.00,0,Wunderground v.1.15,2013-01-15 10:10:00,
2013-01-15 05:20:00,27.0,25.0,30.13,East,82,5.0,19.0,92,0.00,,,0.00,0,Wunderground v.1.15,2013-01-15 10:20:00,
2013-01-15 05:30:00,27.0,25.0,30.13,East,92,4.0,19.0,92,0.00,,,0.00,0,Wunderground v.1.15,2013-01-15 10:30:00,
2013-01-15 05:40:00,27.0,25.0,30.13,ENE,63,5.0,5.0,92,0.00,,,0.00,0,Wunderground v.1.15,2013-01-15 10:40:00,
2013-01-15 05:50:00,27.0,25.0,30.13,East,82,4.0,19.0,92,0.00,,,0.00,0,Wunderground v.1.15,2013-01-15 10:50:00,
2013-01-15 06:00:00,27.0,25.0,30.13,ENE,60,4.0,4.0,92,0.00,,,0.00,0,Wunderground v.1.15,2013-01-15 11:00:00,
2013-01-15 06:10:00,27.0,25.0,30.12,East,96,4.0,19.0,92,0.00,,,0.00,0,Wunderground v.1.15,2013-01-15 11:10:00,
2013-01-15 06:20:00,27.1,25.1,30.12,ENE,76,3.0,3.0,92,0.00,,,0.00,0,Wunderground v.1.15,2013-01-15 11:20:00,
2013-01-15 06:30:00,27.2,25.2,30.12,NE,56,3.0,3.0,92,0.00,,,0.00,0,Wunderground v.1.15,2013-01-15 11:30:00,
2013-01-15 06:40:00,27.1,25.1,30.11,East,87,4.0,19.0,92,0.00,,,0.00,0,Wunderground v.1.15,2013-01-15 11:40:00,
2013-01-15 06:50:00,27.1,25.1,30.11,NE,52,3.0,19.0,92,0.00,,,0.00,0,Wunderground v.1.15,2013-01-15 11:50:00,
2013-01-15 07:00:00,27.1,25.1,30.09,ENE,57,3.0,19.0,92,0.00,,,0.00,0,Wunderground v.1.15,2013-01-15 12:00:00,
2013-01-15 07:10:00,27.1,25.3,30.11,ENE,72,3.0,19.0,93,0.00,,,0.00,0,Wunderground v.1.15,2013-01-15 12:10:00,
2013-01-15 07:20:00,27.3,25.5,30.11,ENE,73,3.0,3.0,93,0.00,,,0.00,0,Wunderground v.1.15,2013-01-15 12:20:00,
2013-01-15 07:30:00,27.4,25.6,30.10,NE,52,3.0,3.0,93,0.00,,,0.00,0,Wunderground v.1.15,2013-01-15 12:30:00,
2013-01-15 07:40:00,27.4,25.6,30.11,ESE,108,3.0,3.0,93,0.00,,,0.00,0,Wunderground v.1.15,2013-01-15 12:40:00,
2013-01-15 07:50:00,27.5,25.7,30.11,East,87,2.0,19.0,93,0.00,,,0.00,0,Wunderground v.1.15,2013-01-15 12:50:00,
2013-01-15 08:00:00,27.6,25.8,30.12,ENE,61,3.0,19.0,93,0.00,,,0.00,0,Wunderground v.1.15,2013-01-15 13:00:00,
2013-01-15 08:10:00,27.6,25.6,30.10,East,91,3.0,19.0,92,0.00,,,0.00,0,Wunderground v.1.15,2013-01-15 13:10:00,
2013-01-15 08:20:00,27.6,25.6,30.11,NE,53,4.0,4.0,92,0.00,,,0.00,7,Wunderground v.1.15,2013-01-15 13:20:00,
2013-01-15 08:30:00,27.9,26.1,30.12,ENE,66,2.0,19.0,93,0.00,,,0.00,12,Wunderground v.1.15,2013-01-15 13:30:00,
2013-01-15 08:40:00,28.0,26.2,30.11,ENE,57,3.0,19.0,93,0.00,,,0.00,14,Wunderground v.1.15,2013-01-15 13:40:00,
2013-01-15 08:50:00,28.0,26.2,30.14,East,80,3.0,19.0,93,0.00,,,0.00,12,Wunderground v.1.15,2013-01-15 13:50:00,
2013-01-15 09:00:00,28.1,26.1,30.13,ENE,78,3.0,3.0,92,0.00,,,0.00,19,Wunderground v.1.15,2013-01-15 14:00:00,
2013-01-15 09:10:00,28.3,26.5,30.14,ESE,105,2.0,19.0,93,0.00,,,0.00,16,Wunderground v.1.15,2013-01-15 14:10:00,
2013-01-15 09:20:00,28.3,26.5,30.12,East,80,3.0,19.0,93,0.00,,,0.00,23,Wunderground v.1.15,2013-01-15 14:20:00,
2013-01-15 09:30:00,28.4,26.6,30.10,East,94,4.0,4.0,93,0.00,,,0.00,47,Wunderground v.1.15,2013-01-15 14:30:00,
2013-01-15 09:40:00,28.6,26.8,30.09,ENE,68,4.0,4.0,93,0.00,,,0.00,37,Wunderground v.1.15,2013-01-15 14:40:00,
2013-01-15 09:50:00,28.7,26.9,30.09,ENE,67,4.0,4.0,93,0.00,,,0.00,51,Wunderground v.1.15,2013-01-15 14:50:00,
2013-01-15 10:00:00,28.9,27.1,30.10,NE,52,3.0,19.0,93,0.00,,,0.00,47,Wunderground v.1.15,2013-01-15 15:00:00,
2013-01-15 10:10:00,29.1,27.3,30.09,ENE,64,3.0,19.0,93,0.00,,,0.00,74,Wunderground v.1.15,2013-01-15 15:10:00,
2013-01-15 10:20:00,29.3,27.5,30.09,ENE,71,2.0,19.0,93,0.00,,,0.00,58,Wunderground v.1.15,2013-01-15 15:20:00,
2013-01-15 10:30:00,29.3,27.5,30.10,NNE,32,3.0,3.0,93,0.00,,,0.00,39,Wunderground v.1.15,2013-01-15 15:30:00,
2013-01-15 10:40:00,29.4,27.6,30.09,ENE,74,3.0,19.0,93,0.00,,,0.00,63,Wunderground v.1.15,2013-01-15 15:40:00,
2013-01-15 10:50:00,29.5,27.7,30.08,ENE,61,3.0,19.0,93,0.00,,,0.00,77,Wunderground v.1.15,2013-01-15 15:50:00,
2013-01-15 11:00:00,29.7,27.9,30.08,NE,47,4.0,19.0,93,0.00,,,0.00,76,Wunderground v.1.15,2013-01-15 16:00:00,
2013-01-15 11:10:00,29.9,28.1,30.10,East,83,2.0,2.0,93,0.00,,,0.00,54,Wunderground v.1.15,2013-01-15 16:10:00,
2013-01-15 11:20:00,30.0,28.2,30.09,NE,40,2.0,19.0,93,0.00,,,0.00,54,Wunderground v.1.15,2013-01-15 16:20:00,
2013-01-15 11:40:00,30.1,28.3,30.07,ENE,65,3.0,19.0,93,0.00,,,0.00,76,Wunderground v.1.15,2013-01-15 16:40:00,
2013-01-15 11:50:00,30.1,28.3,30.06,NE,35,4.0,19.0,93,0.00,,,0.00,65,Wunderground v.1.15,2013-01-15 16:50:00,
2013-01-15 12:00:00,30.1,28.3,30.05,NE,53,4.0,4.0,93,0.00,,,0.00,60,Wunderground v.1.15,2013-01-15 17:00:00,
2013-01-15 12:10:00,30.3,28.5,30.03,East,82,4.0,4.0,93,0.00,,,0.00,98,Wunderground v.1.15,2013-01-15 17:10:00,
2013-01-15 12:20:00,30.3,28.5,30.03,ENE,73,4.0,4.0,93,0.00,,,0.00,72,Wunderground v.1.15,2013-01-15 17:20:00,
2013-01-15 12:30:00,30.3,28.5,30.02,ENE,65,3.0,3.0,93,0.00,,,0.00,60,Wunderground v.1.15,2013-01-15 17:30:00,
2013-01-15 12:40:00,30.5,28.7,30.01,ENE,66,2.0,19.0,93,0.00,,,0.00,53,Wunderground v.1.15,2013-01-15 17:40:00,
2013-01-15 12:50:00,30.6,28.8,29.99,East,94,3.0,19.0,93,0.00,,,0.00,90,Wunderground v.1.15,2013-01-15 17:50:00,
2013-01-15 13:00:00,30.7,28.9,29.98,ENE,77,3.0,3.0,93,0.00,,,0.00,93,Wunderground v.1.15,2013-01-15 18:00:00,
2013-01-15 13:10:00,30.8,29.0,29.99,East,88,3.0,19.0,93,0.00,,,0.00,65,Wunderground v.1.15,2013-01-15 18:10:00,
2013-01-15 13:20:00,30.9,29.1,29.99,ENE,74,2.0,19.0,93,0.00,,,0.00,47,Wunderground v.1.15,2013-01-15 18:20:00,
2013-01-15 13:30:00,31.1,29.3,29.97,ESE,109,3.0,3.0,93,0.00,,,0.00,42,Wunderground v.1.15,2013-01-15 18:30:00,
2013-01-15 13:40:00,31.2,29.7,29.95,East,86,3.0,19.0,94,0.00,,,0.00,63,Wunderground v.1.15,2013-01-15 18:40:00,
2013-01-15 13:50:00,31.3,29.8,29.94,ENE,76,4.0,4.0,94,0.00,,,0.00,49,Wunderground v.1.15,2013-01-15 18:50:00,
2013-01-15 14:00:00,31.4,29.9,29.95,ENE,68,2.0,19.0,94,0.00,,,0.00,40,Wunderground v.1.15,2013-01-15 19:00:00,
2013-01-15 14:10:00,31.4,29.9,29.95,ENE,64,4.0,4.0,94,0.00,,,0.00,42,Wunderground v.1.15,2013-01-15 19:10:00,
2013-01-15 14:20:00,31.5,29.7,29.95,NE,55,3.0,19.0,93,0.00,,,0.00,21,Wunderground v.1.15,2013-01-15 19:20:00,
2013-01-15 14:30:00,31.7,30.2,29.99,ENE,64,1.0,1.0,94,0.00,,,0.00,14,Wunderground v.1.15,2013-01-15 19:30:00,
2013-01-15 14:40:00,31.5,30.0,29.98,NE,49,0.0,19.0,94,0.00,,,0.00,14,Wunderground v.1.15,2013-01-15 19:40:00,
2013-01-15 17:00:00,31.4,29.6,29.99,ENE,67,0.0,19.0,93,0.00,,,0.00,5,Wunderground v.1.15,2013-01-15 22:00:00,
2013-01-15 17:10:00,31.6,29.8,30.05,ENE,67,0.0,19.0,93,0.00,,,0.00,0,Wunderground v.1.15,2013-01-15 22:10:00,
2013-01-15 17:20:00,31.6,29.8,30.02,ENE,67,0.0,19.0,93,0.00,,,0.00,0,Wunderground v.1.15,2013-01-15 22:20:00,
2013-01-15 17:30:00,31.5,29.7,29.98,ENE,67,0.0,19.0,93,0.00,,,0.00,0,Wunderground v.1.15,2013-01-15 22:30:00,
2013-01-15 17:40:00,31.5,29.7,29.97,ENE,67,0.0,19.0,93,0.00,,,0.00,0,Wunderground v.1.15,2013-01-15 22:40:00,
2013-01-15 17:50:00,31.5,29.7,29.95,ENE,67,0.0,19.0,93,0.00,,,0.00,0,Wunderground v.1.15,2013-01-15 22:50:00,
2013-01-15 18:00:00,31.4,29.6,29.98,ENE,67,0.0,19.0,93,0.00,,,0.00,0,Wunderground v.1.15,2013-01-15 23:00:00,